Regional Weather Roundup
Issued by NWS

Current Version | Previous Version | Text Only | Print | Product List | Glossary On
Versions: 1 2 3 4 5 6 7 8 9 10 11 12 13 14 15 16 17 18 19 20 21 22 23 24 25 26 27 28 29 30 31 32 33 34 35 36 37 38 39 40 41 42 43 44 45 46 47 48 49 50
000
ASUS42 KTBW 270510
RWRFL
FLORIDA REGIONAL WEATHER ROUNDUP
NATIONAL WEATHER SERVICE TAMPA BAY RUSKIN FL
1200 AM EST THU NOV 27 2014

NOTE: "FAIR" INDICATES FEW OR NO CLOUDS BELOW 12,000 FEET WITH NO
SIGNIFICANT WEATHER AND/OR OBSTRUCTIONS TO VISIBILITY.


FLZ001>010-012>015-112-114-115-270600-
PANHANDLE FLORIDA

CITY           SKY/WX    TMP DP  RH WIND       PRES   REMARKS
PENSACOLA      CLEAR     54  45  71 W8        30.21S
PENSACOLA NAS  CLEAR     59  47  64 W8        30.21S
MILTON NAS     CLEAR     51  43  74 SW8       30.20F
CRESTVIEW      CLEAR     42  39  89 SW5       30.21F WCI  39
VALPARAISO     CLEAR     56  46  69 W8        30.21S
MARY ESTHER    CLEAR     61  44  54 W13G21    30.20S
TRI COUNTY     FAIR      42  40  92 S3        30.21S
PANAMA CITY    FAIR      44  40  85 CALM      30.20S
TYNDALL AFB    CLEAR     61  49  62 W15       30.22R
APALACHICOLA   CLEAR     46  41  82 CALM      30.22S

STATION/POSITION SKY/WX   TEMP    WIND        PRES    WAVE   SWELL
                          AIR SEA DIR/SP/G            HT/PER HT/PER
                          (F)     (DEG/KT/KT) (MB)    (FT/S) (FT/S)
30.1N   87.6W              65 67  260/ 23/ 29 1022.6R   6/ 6
29.2N   88.2W              66 70  270/ 23/ 27 1025.3F   5/ 5
28.7N   86.0W              67 76  290/ 17/ 21 1024.2F   3/ 5
PANAMA CITY BEAC           65 62  260/ 20/ 23 1022.8S
CAPE SAN BLAS    NOT AVBL
TOWER C                    61     270/ 11/ 13 1023.8S
28.5N   84.5W              63 71  320/ 10/ 12 1024.3R   3/ 6   3/ 6

$$
FLZ011-016>038-118-127-128-134-139-239-270600-
NORTH FLORIDA

CITY           SKY/WX    TMP DP  RH WIND       PRES   REMARKS
MARIANNA       CLEAR     45  41  86 S6        30.19F WCI  42
TALLAHASSEE    CLEAR     39  34  82 CALM      30.22R
PERRY          CLEAR     39  38  98 CALM      30.23S
CROSS CITY       N/A     38  36  92 CALM      30.23S
LAKE CITY      FAIR      37  36  93 CALM      30.22S
GAINESVILLE    CLEAR     39  37  92 W3        30.22S
MAYPORT NAS    CLEAR     52  38  58 W7        30.21R
JACKSONVILLE   CLEAR     41  38  89 W6        30.20S WCI  37
JAX NAS        CLEAR     48  38  68 W7        30.22R WCI  45
JAX CRAIG      CLEAR     49  37  63 CALM      30.21R
JAX CECIL      CLEAR     37  37 100 CALM      30.22R
FERNANDINA BEA FAIR      52  39  62 W5        30.19R
ST AUGUSTINE   CLEAR     47  41  80 W8        30.22R WCI  43

STATION/POSITION SKY/WX   TEMP    WIND        PRES    WAVE   SWELL
                          AIR SEA DIR/SP/G            HT/PER HT/PER
                          (F)     (DEG/KT/KT) (MB)    (FT/S) (FT/S)
SHELL POINT                51     290/  4/  5   N/A
KEATON BEACH               57     290/  9/ 10 1023.6F
CEDAR KEY                  56     320/  3/  5 1024.2R
FERNANDINA                 51 62  280/  9/ 11 1022.1R
30.7N   81.3W                 63                N/A     2/10
MAYPORT                    53 63  280/  7/  9   N/A
31.4N   80.9W              58 64  280/ 17/ 21 1021.2R   3/ 4   2/10
ST AUGUSTINE               49     300/  8/  9 1023.4R

$$
FLZ040-043>046-052-053-057-058-063-144-270600-
INTERIOR CENTRAL FLORIDA

CITY           SKY/WX    TMP DP  RH WIND       PRES   REMARKS
OCALA          CLEAR     43  37  81 NW5       30.23S WCI  40
THE VILLAGES     N/A     46  43  87 CALM      30.13R
LEESBURG       CLEAR     50  45  83 NW6       30.23R
SANFORD        CLEAR     49  47  93 CALM      30.21S
ORLANDO EXEC   CLEAR     52  49  89 NW3       30.21S
ORLANDO INTL   PTCLDY    50  48  93 CALM      30.22R
WINTER HAVEN   CLEAR     51  45  79 NW8       30.23S
LAKELAND       CLEAR     45  45 100 CALM      30.23F
BARTOW         FAIR      43  43 100 CALM      30.23S
OKEECHOBEE     PTCLDY    46  46 100 W3        30.22S

$$
FLZ041-047-054-059-064-141-147-270600-
EAST CENTRAL FLORIDA

CITY           SKY/WX    TMP DP  RH WIND       PRES   REMARKS
DAYTONA BEACH  PTCLDY    49  46  90 W6        30.21S
DELAND         CLEAR    N/A N/A N/A W3        30.22S
JFK SPACE CTR  PTCLDY    51  49  94 W3        30.21S
CAPE CANAVERAL PTCLDY    46  44  93 CALM      30.20S
PATRICK AFB    PTCLDY    55  49  80 W8        30.21S
MELBOURNE      PTCLDY    49  48  97 W3        30.21R
VERO BEACH     PTCLDY    46  46 100 NW5       30.21S WCI  44
FT PIERCE      PTCLDY    47  45  93 NW5       30.20S WCI  45
STUART         CLEAR     54  46  76 NW6       30.21S

STATION/POSITION SKY/WX   TEMP    WIND        PRES    WAVE   SWELL
                          AIR SEA DIR/SP/G            HT/PER HT/PER
                          (F)     (DEG/KT/KT) (MB)    (FT/S) (FT/S)
28.5N   80.2W              62 76  320/ 10/ 14 1022.4S
28.9N   78.5W              68 77  320/ 14/ 19 1021.0F   8/ 8   7/ 8
TRIDENT PIER               53 69   20/  2/  3 1022.2F
28.4N   80.5W                 69                N/A     3/10
27.6N   80.2W                 77                N/A     4/ 9   2/11

$$
FLZ050-056-061-142-242-148-248-149-249-151-251-155-255-
160-260-270600-
WEST CENTRAL FLORIDA

CITY           SKY/WX    TMP DP  RH WIND       PRES   REMARKS
CRYSTAL RIVER  FAIR      41  41 100 CALM      30.24R
INVERNESS      FAIR      41  41 100 CALM      30.24R
BROOKSVILLE    CLEAR     42  40  92 CALM      30.24R
ZEPHYRHILLS    FAIR      43  41  93 CALM      30.24S FOG
CLEARWATER     CLEAR     49  44  83 S3        30.24S
TAMPA INTL     CLEAR     51  45  79 CALM      30.24S
TAMPA EXEC     CLEAR     46  45  93 CALM      30.25R
PLANT CITY     CLEAR     48 N/A N/A CALM      30.25S
MACDILL AFB    CLEAR     47  43  85 N5        30.24R WCI  45
PETER O KNIGHT CLEAR     52  46  82 CALM      30.24S
ST PETERSBURG  CLEAR     56  44  64 N6        30.22S
SARASOTA       CLEAR     48  45  89 E3        30.22S
VENICE         FAIR      50  45  81 E5        30.24F

STATION/POSITION SKY/WX   TEMP    WIND        PRES    WAVE   SWELL
                          AIR SEA DIR/SP/G            HT/PER HT/PER
                          (F)     (DEG/KT/KT) (MB)    (FT/S) (FT/S)
CEDAR KEY                  56     320/  3/  5 1024.2R
28.5N   84.5W              63 71  320/ 10/ 12 1024.3R   3/ 6   3/ 6
27.3N   84.3W                 78                N/A     6/ 8
CLEARWATER BEACH           57 65   60/  3/  5 1023.4S
MIDDLE TAMPA BAY           59     350/  9/ 11 1023.8F
VENICE                     53 67   60/  6/  6 1023.3F

$$
FLZ066-069-070-075>078-162-262-165-265-270600-
SOUTHWEST FLORIDA AND KEYS

CITY           SKY/WX    TMP DP  RH WIND       PRES   REMARKS
PUNTA GORDA    PTCLDY    51  46  83 N3        30.25S
FT MYERS       PTCLDY    53  47  79 NE3       30.22S
SOUTHWEST INTL PTCLDY    50  46  86 CALM      30.23S
NAPLES         CLEAR     53  49  86 N5        30.22S
MARCO ISLAND   CLEAR     54  50  87 N6        30.21S
MARATHON       MOCLDY    64  49  57 N15G23    30.18F
KEY WEST NAS   PTCLDY    63 N/A N/A N16G25    30.19S
KEY WEST INTL  PTCLDY    65  48  54 N15       30.20S

STATION/POSITION SKY/WX   TEMP    WIND        PRES    WAVE   SWELL
                          AIR SEA DIR/SP/G            HT/PER HT/PER
                          (F)     (DEG/KT/KT) (MB)    (FT/S) (FT/S)
VENICE                     53 67   60/  6/  6 1023.3F
NAPLES                     54 75  360/  8/  9 1023.7F
26.0N   85.6W              68 80   10/ 10/ 14 1024.6R   6/ 8   5/ 8
DRY TORTUGAS               67      30/ 19/ 22 1022.5S
NW FL BAY                  62      20/ 13/ 16 1022.4R
SAND KEY                   66      20/ 21/ 27 1022.2S
SOMBRERO KEY               64      10/ 21/ 24 1022.2R
LONG KEY                   64 75   10/ 16/ 18 1022.7R
MOLASSES REEF              65 78  360/ 18/ 19 1021.2R

$$
FLZ067-068-071>074-168-172>174-270600-
SOUTHEAST FLORIDA

CITY           SKY/WX    TMP DP  RH WIND       PRES   REMARKS
W PALM BEACH   MOCLDY    56  48  74 NW12      30.18F
FT LAUDER-EXEC MOCLDY    57  46  66 NW7       30.18F
FT LAUDERDALE  MOCLDY    57  47  69 N10       30.17F
POMPANO BEACH  CLOUDY    58  46  64 NW10      30.18F
PEMBROKE PINES MOCLDY    57  47  69 N10       30.19F
OPA LOCKA        N/A    N/A N/A N/A MISG      30.19S
MIAMI          CLOUDY    59  43  55 N6        30.19S
WEST KENDALL   MOCLDY    59  44  57 N14       30.19S
HOMESTEAD      MOCLDY    60  45  57 N12       30.18F

STATION/POSITION SKY/WX   TEMP    WIND        PRES    WAVE   SWELL
                          AIR SEA DIR/SP/G            HT/PER HT/PER
                          (F)     (DEG/KT/KT) (MB)    (FT/S) (FT/S)
PORT EVERGLADES            59     310/ 11/ 16 1021.7
VIRGINIA KEY               60 76  340/  7/ 12 1022.2F
LAKE WORTH                 57 76  320/ 12/ 14 1021.8R
SETTLEMENT POINT           70     360/ 19/ 21 1021.4F

$$



USA.gov is the U.S. government's official web portal to all federal, state and local government web resources and services.